Theta_e
313 314 318 323 318 313 317 319 316 318 318 319 319 318 318 318 317 315 320 320 321 322 330 334 335 335 335 335 334 332 331 333 333 332 332 331 329 325 324 325 324 322 320 320 320 320 318 320 320
314 316 322 321 314 315 315 314 318 318 318 319 319 319 318 318 321 321 320 319 320 321 326 331 333 334 334 334 333 333 333 332 331 331 330 330 327 324 324 324 321 319 319 319 320 319 319 320 319
315 318 320 312 310 315 316 316 316 317 319 319 318 319 319 319 320 320 319 318 318 320 320 328 332 333 333 334 334 334 333 331 331 329 328 327 325 325 326 321 322 319 319 318 319 319 318 319 319
319 321 317 312 317 315 315 315 315 317 319 318 318 317 318 319 319 318 316 316 317 319 321 322 330 331 332 333 333 332 332 331 329 328 327 327 330 325 323 322 323 319 318 317 318 318 316 315 313
319 318 311 314 316 314 315 316 317 317 317 318 318 316 317 318 319 316 316 316 316 317 320 321 325 330 331 332 332 332 332 331 328 326 330 328 326 326 324 324 323 320 316 314 315 315 315 313 311
319 314 312 315 316 314 315 317 317 315 315 317 317 317 317 319 317 316 316 317 316 316 318 320 321 325 328 329 330 331 331 331 328 327 331 328 331 328 326 325 324 319 314 313 313 314 313 310 306
315 309 312 314 314 315 315 316 316 315 314 317 317 315 317 317 318 318 317 317 316 316 316 318 320 323 327 328 329 330 331 331 329 328 329 329 329 329 327 326 323 317 312 312 312 312 309 305 304
318 310 315 313 313 316 315 315 316 315 315 316 317 313 315 316 316 317 317 317 317 316 316 316 317 320 324 326 328 329 331 331 330 330 328 328 328 328 329 327 326 319 313 311 310 309 306 304 304
316 309 310 315 314 315 316 314 316 316 316 316 316 316 315 315 316 316 316 317 317 316 316 316 316 318 319 321 324 328 331 332 332 331 330 328 326 327 329 327 328 324 319 311 309 307 305 304 304
313 307 310 312 314 315 316 315 316 315 316 314 314 315 315 315 315 315 315 315 316 316 317 317 317 317 320 320 321 323 325 340 338 337 332 329 329 330 326 327 327 328 323 317 310 306 304 304 305
314 311 312 316 316 316 315 315 315 315 313 315 315 315 314 315 315 315 315 314 315 315 316 317 317 318 319 319 320 322 324 325 335 335 334 332 330 332 332 331 325 328 326 322 314 308 304 303 304
316 316 315 317 316 315 315 316 315 315 315 315 315 313 314 314 314 314 314 314 314 314 315 315 316 317 318 319 320 321 322 323 325 335 334 334 330 331 330 332 332 330 328 326 321 311 305 303 303
314 314 315 316 316 314 314 314 313 314 315 314 313 313 314 314 314 314 313 313 313 314 314 315 315 315 316 317 319 321 322 323 324 327 327 329 328 330 330 329 328 330 328 326 325 318 309 304 303
313 313 313 314 315 313 312 312 313 316 316 314 313 313 314 313 313 312 312 313 312 313 313 314 315 315 316 316 318 320 322 323 324 326 326 326 326 327 327 327 327 328 329 322 322 322 316 307 304
314 312 309 311 312 311 312 312 311 316 314 313 312 313 312 312 310 310 311 312 312 312 312 313 314 314 315 316 319 322 324 325 326 327 328 329 329 329 328 327 327 326 326 326 324 324 322 317 307
311 310 310 311 312 313 313 313 312 315 313 311 310 309 309 308 308 308 308 309 310 311 311 311 312 314 314 316 319 323 327 328 328 329 329 328 327 327 327 327 326 324 324 326 324 324 324 322 317
308 309 310 311 312 312 311 312 312 315 313 309 307 306 306 306 306 306 307 307 307 308 309 310 311 313 315 316 319 325 329 330 328 326 326 326 326 326 325 326 325 324 324 326 326 323 322 323 319
309 310 309 310 312 311 312 310 309 313 311 307 304 303 303 303 303 304 305 306 306 307 308 309 312 315 316 319 323 326 328 327 327 324 323 324 324 323 323 324 324 324 324 327 325 322 320 320 319
309 309 311 310 310 312 310 309 309 310 305 303 303 302 302 301 301 302 303 304 305 307 307 308 309 310 314 316 318 320 322 323 323 319 320 321 321 320 321 322 323 323 322 322 322 322 318 317 316
309 311 310 310 309 310 310 310 308 304 303 303 302 301 301 300 301 302 303 304 305 305 305 306 306 307 308 309 311 312 314 315 319 317 317 318 317 318 318 319 320 319 319 318 318 317 317 315 314
310 310 311 311 310 309 309 309 310 304 303 302 301 301 300 300 300 301 303 304 304 305 306 306 306 306 305 306 307 309 312 313 315 316 315 313 314 314 314 315 315 317 317 315 316 314 312 312 311
314 309 310 312 310 313 308 311 307 305 303 301 300 300 300 300 300 301 302 303 303 303 303 303 304 304 305 305 306 306 305 304 304 305 305 306 307 307 308 310 311 311 311 311 310 311 310 309 309
313 309 310 310 309 308 308 309 306 304 305 301 299 299 299 300 301 301 301 301 301 301 301 302 302 303 303 303 302 302 303 303 302 302 302 301 301 301 301 302 302 304 306 305 306 306 307 307 307
308 308 307 305 306 310 308 309 309 308 307 301 299 299 299 300 300 300 300 300 301 301 302 303 302 302 302 302 302 302 301 301 301 301 301 300 299 299 298 298 299 299 300 300 300 299 300 302 304
308 309 312 310 309 313 308 309 308 305 302 303 299 299 300 300 300 300 301 301 301 302 302 301 301 301 300 299 299 298 298 297 296 295 295 294 293 292 292 291 291 291 292 294 297 298 297 297 298
307 309 311 309 309 310 308 311 309 301 300 301 301 300 299 299 300 302 302 301 301 300 299 298 297 296 296 296 295 294 293 292 292 291 290 290 290 290 289 289 289 289 288 288 289 289 289 292 295
309 310 308 309 294 305 310 308 304 301 299 299 299 299 300 300 300 301 302 302 300 299 297 295 294 294 293 293 292 292 292 291 291 290 289 289 289 289 289 288 289 289 288 288 288 288 288 288 287
309 307 311 307 307 308 309 309 309 303 301 299 298 299 301 300 300 301 301 301 299 297 295 293 292 292 292 291 290 290 290 289 289 289 289 288 288 288 288 288 288 288 288 287 287 287 287 287 287
308 309 308 308 306 304 303 306 303 304 302 300 299 302 302 302 301 301 300 300 298 296 293 291 291 290 290 289 289 289 289 289 288 288 288 288 288 288 287 287 287 287 287 286 286 286 286 286 286
307 308 308 310 308 304 306 309 304 303 302 301 302 304 304 302 301 301 301 299 298 295 292 290 290 290 289 289 289 289 288 288 288 288 287 287 287 286 286 286 286 285 285 285 285 285 285 285 285
Wind_Speed
5 5 5 1 4 5 2 1 2 1 2 1 1 2 2 2 3 3 2 1 1 8 15 19 19 19 18 16 15 14 12 9 7 7 6 7 6 6 6 4 4 5 4 2 2 1 2 2 1
4 3 2 1 5 4 4 3 2 1 2 2 1 2 2 2 1 2 1 1 1 5 12 18 20 19 18 15 14 13 12 10 8 7 7 7 7 7 6 5 4 4 4 4 2 1 1 2 3
3 3 2 4 4 3 4 3 3 2 1 2 1 1 0 2 2 2 3 2 1 4 8 16 19 19 18 16 15 14 12 11 10 9 9 9 9 8 7 6 6 6 5 5 5 4 3 3 3
2 1 5 5 2 3 3 3 3 1 1 2 3 2 2 2 2 1 4 4 2 3 5 12 18 19 19 18 17 16 14 13 11 10 10 10 8 8 7 7 8 9 8 7 6 6 5 6 6
2 2 4 4 3 4 2 2 4 2 1 2 3 3 5 4 2 0 2 5 4 2 5 8 15 19 20 20 19 18 16 15 13 12 10 11 11 9 8 8 9 11 9 7 7 7 6 7 7
2 3 4 1 2 4 3 1 1 3 2 1 1 4 4 3 1 2 4 4 5 3 5 8 12 18 20 21 21 20 19 17 15 13 13 12 11 11 10 10 10 12 10 8 8 7 7 7 8
5 4 3 2 3 3 3 5 2 3 1 1 1 2 5 7 7 6 6 6 7 5 6 8 11 15 19 21 21 21 20 19 17 15 15 14 15 14 12 11 11 12 11 9 8 8 8 7 7
3 5 2 2 2 1 6 6 3 3 1 0 1 2 3 12 10 8 9 7 7 9 8 9 11 14 17 20 21 21 21 20 19 18 17 17 17 16 15 13 11 12 10 10 9 9 8 8 7
2 4 1 3 2 2 6 6 1 6 4 4 6 5 11 11 10 11 11 12 12 13 12 11 11 14 16 18 20 21 22 22 22 21 20 19 20 19 17 15 14 13 11 11 10 10 10 10 9
4 4 7 4 2 2 6 4 9 4 12 5 9 12 11 11 10 11 14 17 18 18 16 14 14 14 16 17 19 20 22 22 22 22 22 21 22 21 19 17 16 15 13 12 12 12 11 12 11
3 4 5 4 6 3 4 6 2 4 3 15 16 20 14 9 9 11 12 12 13 14 15 17 17 16 16 17 18 20 24 23 24 23 22 21 22 23 21 20 19 18 16 15 15 14 12 14 13
0 5 5 2 4 3 3 5 7 9 16 17 17 12 10 8 8 7 8 10 10 10 12 15 16 17 17 17 17 17 20 23 24 25 23 23 22 25 25 23 21 20 19 17 16 16 15 16 16
3 4 6 10 13 13 10 11 7 21 15 11 5 8 9 10 8 8 8 7 7 10 13 16 16 16 16 16 16 16 17 20 23 26 25 25 25 25 26 26 24 22 22 20 19 17 17 18 18
2 5 11 12 19 12 5 4 2 4 3 6 7 9 11 10 9 7 8 11 10 8 10 14 18 18 17 16 14 15 16 15 16 19 21 23 27 27 27 26 26 25 23 18 18 19 19 20 21
2 5 8 10 7 5 5 0 7 6 9 9 7 8 7 9 9 8 8 10 12 13 12 10 12 16 17 17 16 16 15 15 14 13 13 15 17 22 21 23 26 26 26 23 20 20 22 23 24
3 3 4 4 2 1 4 7 6 8 10 6 3 2 3 5 8 9 8 7 8 9 12 13 9 9 13 12 13 14 15 14 12 12 14 14 16 18 21 23 24 23 27 28 25 23 23 24 25
5 3 4 8 3 2 3 5 9 16 18 4 7 5 6 6 7 8 9 9 9 8 8 10 8 4 5 6 6 7 9 10 10 11 12 13 15 17 19 20 21 21 23 25 25 25 24 26 26
6 4 5 5 0 3 3 8 13 23 6 7 11 11 11 12 15 14 12 11 11 9 8 8 8 6 3 4 4 5 7 7 7 8 11 12 12 14 15 17 19 20 21 23 23 24 24 26 26
2 4 4 3 5 1 6 5 12 14 11 16 15 14 15 17 17 18 18 19 18 17 16 15 9 10 6 4 2 2 2 3 3 6 9 10 12 13 11 11 12 14 17 18 19 20 22 23 26
2 2 5 6 4 3 6 10 3 10 7 12 16 15 16 17 17 20 21 23 24 26 26 25 24 20 17 12 10 8 5 2 1 3 6 8 9 11 12 11 11 11 11 13 16 19 21 21 22
4 5 5 8 3 1 3 6 2 6 15 16 15 15 15 16 18 20 22 24 25 27 28 28 28 27 25 20 14 9 5 4 1 2 2 5 8 10 11 12 15 15 14 17 19 18 17 19 21
4 8 7 3 3 4 1 5 6 5 5 7 13 14 15 16 18 19 20 22 24 26 25 26 26 26 27 24 23 22 20 18 15 12 10 10 10 11 12 13 14 15 18 21 22 21 20 20 21
7 4 4 2 2 3 4 1 6 6 3 5 9 13 15 16 17 18 19 21 22 22 23 23 23 23 24 23 24 23 21 19 16 14 12 12 12 11 11 11 11 12 16 17 19 22 24 24 24
5 4 6 4 3 1 7 7 4 5 3 6 12 15 15 15 15 16 18 18 17 17 16 16 15 17 16 14 14 14 13 12 10 11 11 11 11 11 11 12 12 11 11 13 14 14 16 22 25
4 5 2 4 2 5 3 1 7 4 5 11 16 20 18 16 15 15 14 12 11 10 12 12 10 10 10 10 11 12 11 10 11 12 12 11 13 15 15 15 15 16 16 14 13 14 15 16 18
6 7 5 7 3 4 2 6 5 1 2 19 27 24 20 17 16 13 9 7 6 6 7 7 7 8 8 8 9 9 9 11 12 13 15 15 15 17 19 18 18 19 20 19 18 17 17 17 18
5 5 3 5 2 3 4 4 2 3 4 11 19 20 22 20 17 13 8 4 1 3 3 3 4 5 5 6 7 7 8 9 10 12 13 14 16 17 18 20 20 20 21 23 23 22 22 21 21
4 6 4 2 2 5 4 5 5 7 10 7 10 21 20 19 18 15 10 5 2 2 1 0 1 2 3 4 5 7 8 9 11 12 14 16 18 19 21 23 24 24 24 25 27 26 26 27 26
2 2 3 3 5 6 2 6 5 11 13 14 19 22 20 21 20 15 11 7 6 5 4 4 4 2 1 2 4 6 8 10 12 14 16 18 20 22 24 26 27 28 29 30 32 31 31 31 31
3 7 7 5 6 3 1 12 5 6 15 22 23 19 19 19 19 17 15 12 11 9 8 8 6 3 1 4 6 8 10 12 14 15 17 19 21 22 25 27 29 31 33 35 37 39 38 38 40
Wind_Direction
328 311 313 272 55 66 328 13 309 321 338 15 57 82 158 173 159 205 317 178 230 186 188 188 196 197 200 203 207 203 205 206 210 211 202 199 203 201 210 224 250 275 282 305 354 60 88 101 127
342 342 339 75 82 66 283 263 238 268 358 68 77 56 66 257 228 305 315 330 151 178 193 194 199 204 207 208 202 203 208 217 227 234 229 219 215 220 231 259 277 288 276 288 283 274 165 176 173
0 11 30 86 102 155 193 228 241 320 48 24 59 49 77 315 327 349 340 342 254 186 190 200 203 208 213 215 213 213 222 230 234 231 225 227 226 230 241 270 278 278 280 259 252 252 252 242 237
332 19 63 81 138 233 217 215 220 143 37 32 24 21 316 283 302 358 39 29 338 222 201 200 209 214 219 221 223 227 233 233 233 232 234 234 229 241 261 271 274 281 282 256 257 258 260 262 254
22 49 54 81 287 273 265 234 178 109 10 349 19 313 304 297 256 266 27 37 9 287 223 212 214 218 223 228 230 233 236 237 237 238 238 250 255 259 263 264 271 285 281 269 266 264 268 266 263
47 55 60 153 268 276 292 338 142 76 60 354 8 329 308 321 251 273 304 339 351 293 243 231 220 221 225 228 230 233 236 238 238 238 236 249 255 260 262 266 274 291 287 280 275 269 270 270 265
96 75 175 190 285 336 322 348 57 103 320 203 343 338 316 19 328 297 283 305 331 308 272 250 237 228 229 233 236 236 236 238 239 238 240 246 252 260 262 269 282 296 297 291 286 280 276 271 259
62 89 96 274 283 9 342 353 20 50 250 293 355 253 308 321 324 314 276 278 313 318 306 279 257 244 238 237 237 239 239 239 239 238 240 246 251 258 262 266 270 282 294 290 287 277 269 255 249
69 60 176 243 149 275 340 9 326 330 269 288 277 285 304 320 316 328 317 295 296 301 294 289 272 255 248 245 244 241 239 239 240 239 240 247 251 254 259 268 269 276 291 283 280 271 264 255 253
95 113 216 224 179 273 316 314 323 337 315 316 317 331 317 303 307 313 315 311 295 292 283 280 282 270 256 251 248 244 241 234 235 237 239 244 251 251 254 260 265 271 279 283 276 269 260 253 254
154 186 197 246 214 254 291 293 309 294 287 307 329 333 335 330 308 302 299 288 286 284 278 271 273 269 263 259 255 250 250 246 235 236 238 241 249 247 249 257 257 265 276 284 282 271 262 256 256
299 261 245 274 219 302 266 280 299 271 284 312 329 8 31 23 4 343 311 302 297 286 268 266 261 260 260 259 260 260 257 257 249 238 239 241 245 246 253 255 257 265 271 276 280 278 265 258 255
195 283 282 278 281 283 273 265 261 277 294 314 344 354 349 340 337 316 311 309 292 280 281 275 267 258 250 259 262 265 265 263 258 254 252 250 249 247 253 259 261 262 270 272 278 278 270 265 261
198 274 283 287 280 278 247 260 232 278 343 346 344 344 338 330 327 311 295 302 308 300 280 273 267 260 241 242 254 264 271 277 272 264 265 259 256 256 267 259 261 265 271 283 279 279 275 266 261
302 324 327 273 273 209 160 81 228 258 307 334 356 326 318 327 331 342 337 320 313 312 311 298 283 258 245 238 241 254 269 280 287 288 277 269 266 254 264 265 267 271 276 279 281 282 281 275 269
22 46 347 292 169 56 142 266 275 307 336 357 346 92 28 15 3 357 353 330 314 306 301 309 304 275 245 236 240 244 256 269 281 295 278 270 267 265 268 270 270 276 278 272 275 278 282 282 276
4 236 218 314 340 89 132 276 272 298 315 33 107 94 85 67 45 25 12 4 358 348 333 316 319 275 230 214 227 233 246 255 260 265 268 268 270 273 275 277 277 278 274 275 274 277 280 287 280
206 215 239 233 219 40 293 261 275 296 331 131 119 103 92 77 60 54 49 42 37 37 37 38 46 62 107 158 177 199 225 234 248 264 263 264 266 265 273 277 279 276 275 272 267 276 281 289 286
165 187 227 267 261 317 255 248 274 322 82 120 115 106 94 82 76 74 72 69 68 67 65 59 56 65 88 114 155 193 235 265 266 301 283 272 269 264 262 266 279 290 287 282 283 283 283 284 289
218 244 260 274 266 164 280 275 12 36 50 124 121 110 103 100 92 84 78 75 69 65 66 65 64 62 61 63 74 78 73 72 170 261 306 312 303 286 286 283 282 281 282 285 290 293 292 285 287
210 189 222 221 354 269 325 289 167 55 88 105 108 112 108 101 93 86 81 75 72 67 62 60 60 60 58 56 54 56 49 55 67 323 300 308 304 301 299 290 288 291 289 283 278 278 288 289 286
224 208 205 203 127 224 79 275 301 139 113 92 126 125 120 114 104 95 86 78 70 65 60 57 52 51 49 46 46 45 48 46 38 25 6 344 327 312 297 283 276 282 285 289 290 290 286 285 283
236 117 154 118 131 57 301 295 259 124 180 178 156 143 136 126 116 103 94 86 77 70 61 58 52 45 41 34 32 29 31 37 41 41 34 25 13 2 349 336 314 294 284 287 287 287 285 281 280
137 88 53 56 112 293 223 184 266 187 191 162 174 159 148 135 121 108 96 87 80 74 61 45 36 28 27 21 23 21 29 25 16 16 16 21 20 23 26 23 7 348 327 316 314 312 303 283 281
98 80 327 333 358 230 137 144 247 301 315 185 165 167 160 150 135 121 103 93 83 67 44 30 27 24 30 25 24 23 20 16 13 12 12 7 8 7 6 9 10 6 1 355 349 337 320 307 295
176 157 168 224 211 255 43 234 253 310 0 159 169 167 163 161 154 148 128 104 78 50 34 31 33 36 31 22 19 18 12 10 9 8 4 2 0 357 353 350 350 349 348 348 347 347 343 339 323
188 170 165 93 57 45 234 296 266 74 44 140 165 173 180 178 174 171 167 153 90 29 18 34 29 20 34 33 22 8 1 357 357 357 354 351 348 344 340 337 336 335 334 332 331 332 331 328 327
159 167 90 42 282 255 256 264 223 206 197 191 196 202 197 192 190 196 203 208 225 300 326 40 63 57 47 29 11 4 360 356 353 347 341 340 336 332 330 328 328 330 329 327 323 322 320 316 314
140 190 67 132 155 191 254 253 212 196 181 187 201 207 213 212 208 211 219 231 247 258 235 210 196 179 84 17 358 348 341 340 338 334 332 328 327 326 326 325 326 325 324 322 319 317 314 310 307
285 197 166 189 240 258 165 259 8 163 179 182 195 207 226 229 223 227 234 243 249 248 226 211 207 222 288 340 334 328 326 323 320 321 322 321 321 323 322 321 320 319 318 316 314 311 309 306 304